Meacham, OR

5:22 AM PDT on August 19, 2017 (GMT -0700)
Meacham

Weather History for KMEH - February, 2013

Change the Weather History Date:

Saturday, February 23, 2013

  Actual Average Record
Temperature  
Mean Temperature 30 °F -  
Max Temperature 33 °F 37 °F 46 °F (2005)
Min Temperature 26 °F 17 °F 3 °F (2003)
Degree Days  
Heating Degree Days 36    
Moisture  
Dew Point 24 °F    
Average Humidity 81    
Maximum Humidity 93    
Minimum Humidity 69    
Precipitation  
Precipitation 0.17 in - - ()
Sea Level Pressure  
Sea Level Pressure 30.05 in    
Wind  
Wind Speed 5 mph (WNW)    
Max Wind Speed 10 mph    
Max Gust Speed 23 mph    
Visibility 6 miles    
Events Fog , Snow    
Averages and records for this station are not official NWS values.
T = Trace of Precipitation, MM = Missing Value Source: NWS Daily Summary

Daily Weather History Graph

Daily Weather History Graph

Search for Another Location

Airport or City:

Trip Planner

Search our weather history database for the weather conditions in past years. The results will help you decide how hot, cold, wet, or windy it might be!

Date:

Astronomy

Feb. 23, 2013 Rise Set
Actual Time 6:41 AM PST 5:32 PM PST
Civil Twilight 6:11 AM PST 6:02 PM PST
Nautical Twilight 5:37 AM PST 6:37 PM PST
Astronomical Twilight 5:03 AM PST 7:11 PM PST
Moon 3:45 PM PST (2/23) 5:10 AM PST (2/23)
Length of Visible Light 11h 50m
Length of Day
10h 50m
Waxing Gibbous, 96% of the Moon is Illuminated
Feb 23
Waxing Gibbous
Feb 25
Full
Mar 4
Last Quarter
Mar 11
New
Mar 19
First Quarter

Hourly Weather History & Observations

Time (PST) Temp. Windchill Dew Point Humidity Pressure Visibility Wind Dir Wind Speed Gust Speed Precip Events Conditions
12:13 AM 28.4 °F 22.2 °F 24.8 °F 86% 29.82 in 10.0 mi Variable 5.8 mph - N/A   Overcast
12:22 AM 28.4 °F 19.7 °F 24.8 °F 86% 29.83 in 10.0 mi West 9.2 mph - N/A   Overcast
12:29 AM 28.4 °F 22.2 °F 24.8 °F 86% 29.84 in 10.0 mi Variable 5.8 mph 20.7 mph N/A   Overcast
12:56 AM 28.0 °F 21.7 °F 24.1 °F 85% 29.93 in 10.0 mi Variable 5.8 mph 16.1 mph N/A   Overcast
1:29 AM 28.4 °F 22.2 °F 24.8 °F 86% 29.84 in 10.0 mi Variable 5.8 mph 17.3 mph N/A   Overcast
1:43 AM 28.4 °F 20.4 °F 24.8 °F 86% 29.84 in 10.0 mi West 8.1 mph 23.0 mph N/A   Overcast
1:51 AM 28.4 °F 21.2 °F 24.8 °F 86% 29.84 in 10.0 mi Variable 6.9 mph - N/A   Overcast
1:56 AM 28.0 °F 18.6 °F 24.1 °F 85% 29.91 in 10.0 mi West 10.4 mph 21.9 mph N/A   Overcast
2:56 AM 28.0 °F 21.7 °F 23.0 °F 81% 29.93 in 10.0 mi Variable 5.8 mph - N/A   Overcast
3:06 AM 26.6 °F 22.6 °F 23.0 °F 86% 29.86 in 10.0 mi Variable 3.5 mph - N/A   Overcast
3:45 AM 26.6 °F 19.1 °F 23.0 °F 86% 29.86 in 10.0 mi Variable 6.9 mph - N/A   Overcast
3:56 AM 27.0 °F 17.3 °F 21.9 °F 81% 29.94 in 10.0 mi WNW 10.4 mph 19.6 mph N/A   Overcast
4:17 AM 26.6 °F 22.6 °F 21.2 °F 80% 29.87 in 10.0 mi Variable 3.5 mph - N/A   Overcast
4:56 AM 26.1 °F 19.4 °F 21.0 °F 81% 29.95 in 10.0 mi Variable 5.8 mph - N/A   Overcast
5:56 AM 26.1 °F 20.5 °F 21.9 °F 84% 29.98 in 10.0 mi Variable 4.6 mph - N/A   Overcast
6:56 AM 27.0 °F - 21.0 °F 78% 29.99 in 10.0 mi Calm Calm - N/A   Overcast
7:56 AM 27.0 °F 20.5 °F 21.9 °F 81% 30.01 in 1.0 mi Variable 5.8 mph - 0.00 in Snow Light Snow
8:03 AM 26.6 °F 20.0 °F 21.2 °F 80% 29.95 in 0.5 mi Variable 5.8 mph - 0.00 in Snow Snow
8:21 AM 26.6 °F 22.6 °F 21.2 °F 80% 29.95 in 1.5 mi Variable 3.5 mph - 0.01 in Snow Light Snow
8:37 AM 26.6 °F 20.0 °F 21.2 °F 80% 29.96 in 0.8 mi West 5.8 mph - 0.02 in Snow Light Snow
8:56 AM 27.0 °F 23.0 °F 23.0 °F 85% 30.04 in 0.8 mi Variable 3.5 mph - 0.03 in Snow Light Snow
9:10 AM 28.4 °F 21.2 °F 23.0 °F 80% 29.96 in 1.8 mi Variable 6.9 mph - 0.00 in Snow Light Snow
9:30 AM 28.4 °F 22.2 °F 23.0 °F 80% 29.98 in 3.0 mi Variable 5.8 mph - 0.02 in Snow Light Snow
9:56 AM 28.9 °F 23.9 °F 24.1 °F 82% 30.07 in 9.0 mi Variable 4.6 mph - 0.02 in   Overcast
10:56 AM 30.0 °F 24.1 °F 24.1 °F 79% 30.09 in 10.0 mi Variable 5.8 mph - N/A   Overcast
11:56 AM 30.9 °F 25.2 °F 25.0 °F 79% 30.09 in 10.0 mi Variable 5.8 mph - N/A   Overcast
12:27 PM 32.0 °F 25.6 °F 24.8 °F 75% 30.01 in 10.0 mi Variable 6.9 mph - N/A   Overcast
12:56 PM 32.0 °F 26.4 °F 24.1 °F 73% 30.09 in 10.0 mi Variable 5.8 mph - N/A   Overcast
1:21 PM 32.0 °F 28.7 °F 24.8 °F 75% 30.02 in 7.0 mi Variable 3.5 mph - 0.00 in Snow Light Snow
1:56 PM 33.1 °F 27.7 °F 24.1 °F 70% 30.10 in 9.0 mi Variable 5.8 mph - 0.01 in   Overcast
2:56 PM 33.1 °F 28.7 °F 24.1 °F 70% 30.11 in 6.0 mi Variable 4.6 mph - 0.00 in Snow Light Snow
3:32 PM 33.8 °F 30.8 °F 24.8 °F 70% 30.05 in 1.8 mi Variable 3.5 mph - 0.01 in Snow Light Snow
3:48 PM 32.0 °F 26.4 °F 24.8 °F 75% 30.06 in 1.8 mi Variable 5.8 mph - 0.01 in Snow Light Snow
3:56 PM 32.0 °F 26.4 °F 25.0 °F 75% 30.15 in 1.2 mi Variable 5.8 mph - 0.02 in Snow Light Snow
4:08 PM 32.0 °F 27.5 °F 24.8 °F 75% 30.07 in 2.5 mi Variable 4.6 mph - 0.00 in Snow Light Snow
4:16 PM 32.0 °F 26.4 °F 24.8 °F 75% 30.07 in 3.0 mi Variable 5.8 mph - 0.00 in Snow Light Snow
4:25 PM 32.0 °F - 24.8 °F 75% 30.07 in 1.8 mi Calm Calm - 0.00 in Snow Light Snow
4:32 PM 32.0 °F 28.7 °F 23.0 °F 69% 30.07 in 3.0 mi Variable 3.5 mph - 0.00 in Snow Light Snow
4:46 PM 32.0 °F 26.4 °F 23.0 °F 69% 30.09 in 10.0 mi Variable 5.8 mph - 0.00 in   Overcast
4:56 PM 32.0 °F 28.7 °F 24.1 °F 73% 30.18 in 7.0 mi Variable 3.5 mph - 0.00 in Snow Light Snow
5:05 PM 30.2 °F 26.7 °F 24.8 °F 80% 30.10 in 2.0 mi Variable 3.5 mph - 0.00 in Snow Light Snow
5:12 PM 30.2 °F - 24.8 °F 80% 30.10 in 1.0 mi Calm Calm - 0.00 in Snow Light Snow
5:36 PM 30.2 °F 24.3 °F 24.8 °F 80% 30.11 in 0.8 mi Variable 5.8 mph - 0.01 in Snow Light Snow
5:48 PM 28.4 °F 24.6 °F 26.6 °F 93% 30.12 in 0.8 mi Variable 3.5 mph - 0.02 in Snow Light Snow
5:56 PM 28.9 °F 25.2 °F 26.1 °F 89% 30.21 in 0.5 mi Variable 3.5 mph - 0.03 in Fog , Snow Snow
6:34 PM 28.4 °F 24.6 °F 24.8 °F 86% 30.13 in 1.5 mi Variable 3.5 mph - 0.05 in Snow Light Snow
6:46 PM 28.4 °F 22.2 °F 24.8 °F 86% 30.14 in 1.0 mi Variable 5.8 mph - 0.05 in Snow Light Snow
6:56 PM 28.9 °F 25.2 °F 25.0 °F 85% 30.24 in 1.0 mi Variable 3.5 mph - 0.06 in Snow Light Snow
7:02 PM 28.4 °F - 24.8 °F 86% 30.15 in 3.0 mi Calm Calm - 0.00 in Snow Light Snow
7:22 PM 28.4 °F 22.2 °F 24.8 °F 86% 30.16 in 2.0 mi Variable 5.8 mph - 0.00 in Snow Light Snow
7:31 PM 28.4 °F 23.3 °F 24.8 °F 86% 30.16 in 5.0 mi Variable 4.6 mph - 0.00 in Snow Light Snow
7:56 PM 28.9 °F 25.2 °F 24.1 °F 82% 30.25 in 10.0 mi Variable 3.5 mph - 0.00 in   Overcast
8:56 PM 28.0 °F - 23.0 °F 81% 30.29 in 9.0 mi Calm Calm - 0.00 in Snow Light Snow
9:56 PM 28.0 °F - 21.9 °F 78% 30.30 in 10.0 mi Calm Calm - 0.00 in   Overcast
10:56 PM 28.0 °F - 23.0 °F 81% 30.31 in 9.0 mi Calm Calm - 0.00 in Snow Light Snow
11:56 PM 27.0 °F - 23.0 °F 85% 30.31 in 10.0 mi Calm Calm - 0.00 in   Overcast